Location: Mapua
(41.2500°S, 173.1000°E)
Time: 19:47:22
(UTC+12:00)

Amateur Radio Satellites - All Passes

Search period start: 17 August 2017 19:17
Search period end: 18 August 2017 19:17
Location: Mapua, 41.2500°S, 173.1000°E

Satellite Date Start Highest point End Downlink Frequencies (MHz)
Time Altitude Azimuth
AAUSAT CUBESAT 2 17 Aug 19:27:42 19:29:49 14° 89° (E) 19:31:56 437.432
KAITUO 1B 17 Aug 19:27:49 19:31:10 31° 251° (WSW) 19:34:28 145.475/437.950
LilacSat-2 17 Aug 19:33:25 19:36:18 20° 248° (WSW) 19:39:09 437.200
XW-2D 17 Aug 19:43:48 19:46:13 16° 246° (WSW) 19:48:38 145.860 - 145.880
AO-73 17 Aug 19:47:21 19:49:21 13° 91° (E) 19:51:18 145.935
XW-2B 17 Aug 19:55:15 19:57:03 13° 245° (WSW) 19:58:50 145.730 - 145.750
SEEDS 17 Aug 20:02:09 20:06:25 78° 77° (ENE) 20:10:36 437.485
SO-50 17 Aug 20:02:40 20:06:59 32° 132° (SE) 20:11:14 436.795
CUBEBUG 2 17 Aug 20:04:46 20:09:36 71° 79° (E) 20:14:16 437.445
BEESAT 2 17 Aug 20:05:53 20:08:51 20° 226° (SW) 20:11:50 435.950
UWE-3 17 Aug 20:07:23 20:11:54 44° 82° (E) 20:16:14 435.000/436.395/437.385
NUDT-PHONESAT 17 Aug 20:09:15 20:10:34 12° 244° (WSW) 20:11:54 437.300
PCSat 17 Aug 20:13:37 20:18:57 51° 124° (SE) 20:24:14 145.827
CUTE-I 17 Aug 20:20:41 20:24:26 19° 242° (WSW) 20:28:09 437.470
AO-85 17 Aug 20:23:54 20:27:12 16° 217° (SW) 20:30:30 145.980
PRISM 17 Aug 20:25:25 20:26:04 10° 119° (ESE) 20:26:44 437.425
STRAND 1 17 Aug 20:28:25 20:31:33 16° 271° (W) 20:34:45 437.568
UNISAT 6 17 Aug 20:29:43 20:33:01 19° 116° (ESE) 20:36:21 437.425
NO-84 17 Aug 20:30:50 20:34:33 28° 152° (SSE) 20:38:03 435.350 FM
HO-68 17 Aug 20:35:37 20:42:43 58° 248° (WSW) 20:49:45 435.675
FO-29 17 Aug 20:35:55 20:41:04 50° 110° (ESE) 20:46:47 435.910
Oscar 11 17 Aug 20:36:14 20:40:08 31° 84° (E) 20:43:58 .
CUTE 1.7 + AOD 2 17 Aug 20:41:46 20:45:15 25° 248° (WSW) 20:48:41 437.475
XW-2A 17 Aug 20:46:41 20:49:42 28° 251° (WSW) 20:52:40 145.665 - 145.685
ZACube-1 17 Aug 20:57:25 21:02:02 84° 76° (ENE) 21:06:28 437.345
AAUSAT CUBESAT 2 17 Aug 21:01:30 21:05:32 48° 253° (WSW) 21:09:32 437.432
TIGRISAT 17 Aug 21:04:55 21:09:11 39° 110° (ESE) 21:13:36 435.000
DELFI C3 17 Aug 21:13:55 21:16:44 18° 87° (E) 21:19:31 145.870
AO-73 17 Aug 21:21:30 21:26:00 60° 254° (WSW) 21:30:20 145.935
EO-88 17 Aug 21:27:55 21:30:02 14° 88° (E) 21:32:07 145.990 - 145.960
CUBEBUG 2 17 Aug 21:43:11 21:45:33 14° 242° (WSW) 21:47:54 437.445
SO-50 17 Aug 21:43:12 21:47:26 32° 294° (WNW) 21:51:35 436.795
UWE-3 17 Aug 21:44:36 21:47:58 20° 245° (WSW) 21:51:16 435.000/436.395/437.385
M-CUBED/EXP-1 PRIME 17 Aug 21:47:07 21:49:14 16° 118° (ESE) 21:51:21 437.505
Max Valier Satellite 17 Aug 21:56:22 22:00:01 43° 81° (E) 22:03:35 145.860
PRISM 17 Aug 21:56:38 22:00:43 73° 282° (WNW) 22:04:51 437.425
PCSat 17 Aug 21:57:48 22:01:58 23° 287° (WNW) 22:06:06 145.827
RS-15 17 Aug 22:03:19 22:10:58 22° 79° (E) 22:18:32 29.354- 29.394
UNISAT 6 17 Aug 22:04:56 22:09:19 45° 278° (W) 22:13:53 437.425
Tancredo 1 17 Aug 22:05:10 22:07:48 30° 43° (NE) 22:10:29 437.200
NO-84 17 Aug 22:08:18 22:12:17 49° 312° (NW) 22:15:55 435.350 FM
Oscar 11 17 Aug 22:12:35 22:16:06 24° 248° (WSW) 22:19:35 .
nSIGHT-1 17 Aug 22:15:21 22:16:32 12° 51° (NE) 22:17:43 .
QB50P2 17 Aug 22:15:33 22:17:55 15° 117° (ESE) 22:20:19 145.880/145.840
O/OREOS (USA 219) 17 Aug 22:16:14 22:20:52 82° 68° (ENE) 22:25:34 437.305
EO-79 17 Aug 22:18:01 22:20:16 14° 117° (ESE) 22:22:32 145.935-145.965
FO-29 17 Aug 22:22:41 22:26:38 21° 270° (W) 22:30:52 435.910
HO-68 17 Aug 22:26:42 22:28:54 12° 228° (SW) 22:31:07 435.675
ZACube-1 17 Aug 22:36:33 22:37:32 11° 240° (WSW) 22:38:31 437.345
TIGRISAT 17 Aug 22:42:31 22:46:00 21° 273° (W) 22:49:34 435.000
DELFI C3 17 Aug 22:47:57 22:51:34 33° 251° (WSW) 22:55:10 145.870
DUCHIFAT 1 17 Aug 22:52:01 22:55:31 25° 112° (ESE) 22:59:04 145.980
AIST 2D 17 Aug 22:58:52 23:02:28 90° 291° (WNW) 23:06:08 435.315
EO-88 17 Aug 23:00:24 23:03:50 35° 252° (WSW) 23:07:12 145.990 - 145.960
LO-87 17 Aug 23:11:10 23:14:36 34° 83° (E) 23:17:59 145.935 - 145.965
BUGSAT 1 17 Aug 23:11:59 23:13:34 12° 118° (ESE) 23:15:11 437.445
M-CUBED/EXP-1 PRIME 17 Aug 23:20:19 23:23:30 31° 284° (WNW) 23:26:34 437.505
Max Valier Satellite 17 Aug 23:31:33 23:33:26 13° 245° (WSW) 23:35:18 145.860
NANOSAT C BR1 17 Aug 23:33:37 23:37:53 82° 104° (ESE) 23:42:15 145.865
POLYITAN 1 17 Aug 23:34:02 23:38:21 88° 276° (W) 23:42:44 437.675
ISS 17 Aug 23:35:12 23:38:30 72° 38° (NE) 23:41:51 437.550
Tancredo 1 17 Aug 23:40:22 23:43:02 29° 206° (SSW) 23:45:44 437.200
SPROUT 17 Aug 23:41:13 23:42:50 12° 90° (E) 23:44:26 437.525
QB50P2 17 Aug 23:49:01 23:53:13 54° 280° (W) 23:57:31 145.880/145.840
nSIGHT-1 17 Aug 23:49:11 23:52:27 79° 218° (SW) 23:55:47 .
EO-79 17 Aug 23:51:19 23:55:31 56° 280° (W) 23:59:48 145.935-145.965
Oscar 19 17 Aug 23:54:57 23:58:36 20° 117° (ESE) 00:02:15 437.125/150
O/OREOS (USA 219) 17 Aug 23:58:51 00:00:55 13° 231° (SW) 00:03:00 437.305
ESTCUBE 1 18 Aug 00:08:06 00:12:41 86° 257° (WSW) 00:17:12 437.505/2401.250
RS-15 18 Aug 00:10:46 00:21:45 89° 239° (WSW) 00:32:45 29.354- 29.394
DUCHIFAT 1 18 Aug 00:27:22 00:31:03 28° 276° (W) 00:34:49 145.980
Gurwin Techsat 1B 18 Aug 00:32:27 00:36:57 28° 114° (ESE) 00:41:30 435.225
VELOX 1 18 Aug 00:34:05 00:38:14 36° 83° (E) 00:42:22 145.980
50 SAT 18 Aug 00:43:25 00:45:23 14° 87° (E) 00:47:21 437.505
BUGSAT 1 18 Aug 00:44:12 00:48:19 65° 282° (WNW) 00:52:34 437.445
LO-87 18 Aug 00:45:26 00:47:43 16° 246° (WSW) 00:49:59 145.935 - 145.965
DX 1 18 Aug 00:50:55 00:53:36 16° 88° (E) 00:56:16 434.975-435.025
ISS 18 Aug 01:12:34 01:15:17 22° 200° (SSW) 01:18:01 437.550
SPROUT 18 Aug 01:14:46 01:19:07 62° 254° (WSW) 01:23:24 437.525
Tancredo 1 18 Aug 01:17:39 01:19:01 12° 187° (S) 01:20:24 437.200
AO-7 18 Aug 01:24:26 01:30:53 26° 126° (SE) 01:37:22 .
nSIGHT-1 18 Aug 01:26:49 01:29:17 19° 196° (SSW) 01:31:46 .
Oscar 19 18 Aug 01:32:20 01:37:27 56° 281° (W) 01:42:37 437.125/150
AO-85 18 Aug 01:33:15 01:36:33 17° 143° (SE) 01:39:43 145.980
VELOX 1 18 Aug 02:11:00 02:14:27 22° 246° (WSW) 02:17:53 145.980
Gurwin Techsat 1B 18 Aug 02:11:45 02:16:43 38° 277° (W) 02:21:44 435.225
UKube-1 18 Aug 02:12:53 02:17:18 81° 79° (E) 02:21:40 .
50 SAT 18 Aug 02:15:04 02:18:09 30° 251° (WSW) 02:21:12 437.505
DX 1 18 Aug 02:25:45 02:30:02 48° 252° (WSW) 02:34:16 434.975-435.025
RS-15 18 Aug 02:26:22 02:35:44 31° 212° (SSW) 02:45:14 29.354- 29.394
BEESAT 3 18 Aug 02:40:35 02:44:25 62° 124° (SE) 02:48:15 437.485
BEESAT 18 Aug 02:41:33 02:44:54 18° 87° (E) 02:48:12 436.000
ITAMSAT 1 18 Aug 02:42:33 02:47:34 50° 109° (ESE) 02:52:40 435.822/435.867
BEESAT 2 18 Aug 02:44:56 02:48:09 24° 132° (SE) 02:51:22 435.950
ISS 18 Aug 02:50:49 02:52:41 14° 180° (S) 02:54:34 437.550
Tancredo 1 18 Aug 02:53:25 02:55:14 15° 167° (SSE) 02:57:02 437.200
MOZHAYETS 4 18 Aug 03:02:12 03:06:02 25° 86° (E) 03:09:48
nSIGHT-1 18 Aug 03:04:47 03:06:39 14° 176° (S) 03:08:30 .
ITUPSAT 1 18 Aug 03:12:08 03:16:39 36° 82° (E) 03:21:04 437.325
AO-85 18 Aug 03:12:44 03:17:47 87° 301° (WNW) 03:22:24 145.980
AO-7 18 Aug 03:14:30 03:22:49 77° 287° (WNW) 03:31:14 .
YUBILEINY 18 Aug 03:44:56 03:53:18 53° 91° (E) 04:01:48 435.215
UKube-1 18 Aug 03:51:50 03:52:38 10° 240° (WSW) 03:53:26 .
DOVE 4 18 Aug 04:00:15 04:02:54 17° 115° (ESE) 04:05:36 437.250
BEESAT 18 Aug 04:18:14 04:22:55 48° 251° (WSW) 04:27:32 436.000
BEESAT 3 18 Aug 04:20:33 04:21:27 11° 289° (WNW) 04:22:19 437.485
BEESAT 2 18 Aug 04:22:28 04:25:53 30° 295° (WNW) 04:29:18 435.950
ITAMSAT 1 18 Aug 04:23:29 04:27:18 20° 273° (W) 04:31:09 435.822/435.867
CUTE-I 18 Aug 04:24:39 04:27:19 14° 122° (ESE) 04:29:58 437.470
ISS 18 Aug 04:27:19 04:30:05 23° 160° (SSE) 04:32:52 437.550
Tancredo 1 18 Aug 04:28:03 04:31:00 52° 148° (SSE) 04:33:56 437.200
MOZHAYETS 4 18 Aug 04:39:02 04:43:12 33° 249° (WSW) 04:47:19
nSIGHT-1 18 Aug 04:40:56 04:43:52 27° 156° (SSE) 04:46:48 .
LilacSat-2 18 Aug 04:41:26 04:43:48 16° 114° (ESE) 04:46:10 437.200
RS-15 18 Aug 04:45:23 04:53:02 20° 176° (S) 05:00:50 29.354- 29.394
CUBESAT XI-V 18 Aug 04:47:21 04:52:00 63° 79° (E) 04:56:35 437.345
ITUPSAT 1 18 Aug 04:50:18 04:54:16 25° 246° (WSW) 04:58:11 437.325
XW-2D 18 Aug 04:50:25 04:53:11 19° 113° (ESE) 04:55:56 145.860 - 145.880
XW-2B 18 Aug 05:00:54 05:04:01 23° 111° (ESE) 05:07:09 145.730 - 145.750
NUDT-PHONESAT 18 Aug 05:12:44 05:15:48 23° 111° (ESE) 05:18:54 437.300
AO-7 18 Aug 05:12:47 05:16:50 14° 268° (W) 05:20:54 .
HO-68 18 Aug 05:18:19 05:23:33 22° 124° (ESE) 05:28:49 435.675
XW-2C 18 Aug 05:19:09 05:22:46 38° 108° (ESE) 05:26:26 145.795 - 145.815
KKS-1 18 Aug 05:19:27 05:23:59 62° 78° (ENE) 05:28:27 437.445
XW-2F 18 Aug 05:34:32 05:38:20 56° 105° (ESE) 05:42:10 145.980 - 146.000
DOVE 4 18 Aug 05:36:17 05:40:15 42° 278° (W) 05:44:19 437.250
YUBILEINY 18 Aug 05:42:40 05:50:24 34° 250° (WSW) 05:58:19 435.215
CUTE 1.7 + AOD 2 18 Aug 05:58:38 06:01:53 21° 113° (ESE) 06:05:09 437.475
CUTE-I 18 Aug 06:01:14 06:06:35 85° 284° (WNW) 06:12:02 437.470
ISS 18 Aug 06:03:30 06:06:51 67° 323° (NW) 06:10:10 437.550
Tancredo 1 18 Aug 06:04:07 06:05:57 15° 312° (NW) 06:07:47 437.200
KAITUO 1B 18 Aug 06:06:42 06:10:31 71° 281° (WNW) 06:14:23 145.475/437.950
STARS 18 Aug 06:09:33 06:14:05 88° 80° (E) 06:18:34 437.465
LilacSat-2 18 Aug 06:14:01 06:17:43 40° 278° (W) 06:21:28 437.200
nSIGHT-1 18 Aug 06:17:10 06:20:23 45° 319° (NW) 06:23:34 .
XW-2D 18 Aug 06:23:37 06:27:07 32° 277° (W) 06:30:39 145.860 - 145.880
CUBESAT XI-V 18 Aug 06:26:21 06:28:49 14° 242° (WSW) 06:31:17 437.345
XW-2B 18 Aug 06:34:52 06:38:06 25° 275° (W) 06:41:22 145.730 - 145.750
AO-73 18 Aug 06:43:30 06:44:59 11° 119° (ESE) 06:46:28 145.935
NUDT-PHONESAT 18 Aug 06:46:28 06:49:35 24° 275° (W) 06:52:43 437.300
O/OREOS (USA 219) 18 Aug 06:48:09 06:51:17 18° 126° (SE) 06:54:23 437.305
SEEDS 18 Aug 06:53:15 06:57:22 51° 106° (ESE) 07:01:32 437.485
XW-2C 18 Aug 06:54:49 06:57:06 15° 272° (W) 06:59:25 145.795 - 145.815
KKS-1 18 Aug 06:57:35 07:00:00 14° 242° (WSW) 07:02:24 437.445
STRAND 1 18 Aug 06:58:14 07:02:10 21° 87° (E) 07:06:03 437.568
RS-15 18 Aug 06:59:46 07:09:53 38° 142° (SE) 07:20:22 29.354- 29.394
CUBEBUG 2 18 Aug 07:02:08 07:06:37 56° 107° (ESE) 07:11:17 437.445
HO-68 18 Aug 07:03:16 07:10:29 78° 285° (WNW) 07:17:48 435.675
UWE-3 18 Aug 07:03:49 07:07:59 35° 110° (ESE) 07:12:18 435.000/436.395/437.385
XW-2F 18 Aug 07:12:18 07:12:48 10° 270° (W) 07:13:17 145.980 - 146.000
XW-2A 18 Aug 07:16:47 07:20:16 88° 100° (E) 07:23:50 145.665 - 145.685
Oscar 11 18 Aug 07:31:00 07:34:33 25° 112° (ESE) 07:38:08 .
CUTE 1.7 + AOD 2 18 Aug 07:33:33 07:37:29 34° 277° (W) 07:41:27 437.475
STARS 18 Aug 07:49:26 07:49:41 10° 239° (WSW) 07:49:56 437.465
AAUSAT CUBESAT 2 18 Aug 07:50:46 07:54:56 78° 282° (WNW) 07:59:09 437.432
ZACube-1 18 Aug 07:52:18 07:56:49 64° 105° (ESE) 08:01:28 437.345
DELFI C3 18 Aug 08:00:53 08:02:06 11° 117° (ESE) 08:03:17 145.870
AO-73 18 Aug 08:15:54 08:20:29 81° 282° (WNW) 08:25:10 145.935
O/OREOS (USA 219) 18 Aug 08:26:33 08:31:02 52° 287° (WNW) 08:35:27 437.305
SEEDS 18 Aug 08:31:13 08:33:21 14° 271° (W) 08:35:29 437.485
Max Valier Satellite 18 Aug 08:35:30 08:38:20 20° 112° (ESE) 08:41:13 145.860
STRAND 1 18 Aug 08:36:33 08:41:33 47° 250° (WSW) 08:46:32 437.568
UWE-3 18 Aug 08:40:49 08:44:29 23° 273° (W) 08:48:16 435.000/436.395/437.385
CUBEBUG 2 18 Aug 08:41:03 08:43:37 15° 269° (W) 08:46:13 437.445
HO-68 18 Aug 08:56:21 08:59:17 13° 267° (W) 09:02:14 435.675
Oscar 11 18 Aug 09:06:38 09:10:32 31° 276° (W) 09:14:28 .
RS-15 18 Aug 09:12:07 09:23:19 76° 298° (WNW) 09:35:04 29.354- 29.394
FO-29 18 Aug 09:27:56 09:35:06 53° 81° (E) 09:42:43 435.910
ZACube-1 18 Aug 09:31:27 09:33:31 13° 269° (W) 09:35:38 437.345
DELFI C3 18 Aug 09:32:24 09:36:18 61° 281° (W) 09:40:17 145.870
EO-88 18 Aug 09:37:10 09:40:53 89° 292° (WNW) 09:44:40 145.990 - 145.960
PRISM 18 Aug 09:39:04 09:41:31 15° 88° (E) 09:43:57 437.425
LO-87 18 Aug 09:48:09 09:50:16 15° 114° (ESE) 09:52:23 145.935 - 145.965
UNISAT 6 18 Aug 09:56:32 10:01:00 39° 83° (E) 10:05:20 437.425
Max Valier Satellite 18 Aug 10:08:44 10:12:00 27° 276° (W) 10:15:19 145.860
TIGRISAT 18 Aug 10:32:34 10:37:21 86° 80° (E) 10:42:00 435.000
PCSat 18 Aug 10:55:08 11:00:17 46° 67° (ENE) 11:05:28 145.827
M-CUBED/EXP-1 PRIME 18 Aug 10:59:27 11:00:30 11° 82° (E) 11:01:33 437.505
ESTCUBE 1 18 Aug 11:07:03 11:11:37 86° 107° (ESE) 11:16:12 437.505/2401.250
PRISM 18 Aug 11:13:02 11:17:00 44° 252° (WSW) 11:20:56 437.425
FO-29 18 Aug 11:13:29 11:19:48 34° 245° (WSW) 11:26:32 435.910
NANOSAT C BR1 18 Aug 11:19:34 11:21:42 13° 89° (E) 11:23:50 145.865
LO-87 18 Aug 11:20:03 11:23:22 35° 277° (W) 11:26:45 145.935 - 145.965
POLYITAN 1 18 Aug 11:20:11 11:22:47 15° 88° (E) 11:25:21 437.675
RS-15 18 Aug 11:27:22 11:33:49 17° 278° (W) 11:40:27 29.354- 29.394
VELOX 1 18 Aug 11:31:10 11:35:05 32° 111° (ESE) 11:39:03 145.980
UNISAT 6 18 Aug 11:33:45 11:37:25 23° 246° (WSW) 11:41:01 437.425
QB50P2 18 Aug 11:34:15 11:37:50 24° 85° (E) 11:41:21 145.880/145.840
EO-79 18 Aug 11:36:24 11:39:55 23° 86° (E) 11:43:21 145.935-145.965
DX 1 18 Aug 11:46:54 11:49:19 15° 118° (ESE) 11:51:44 434.975-435.025
SO-50 18 Aug 11:56:13 12:00:59 82° 59° (ENE) 12:05:49 436.795
AIST 2D 18 Aug 11:56:58 12:00:33 71° 256° (WSW) 12:04:03 435.315
SPROUT 18 Aug 12:07:23 12:11:42 84° 284° (WNW) 12:16:05 437.525
DUCHIFAT 1 18 Aug 12:10:38 12:14:47 44° 81° (E) 12:18:52 145.980
TIGRISAT 18 Aug 12:11:52 12:13:16 11° 240° (WSW) 12:14:40 435.000
BUGSAT 1 18 Aug 12:26:44 12:29:46 19° 87° (E) 12:32:47 437.445
M-CUBED/EXP-1 PRIME 18 Aug 12:31:41 12:35:07 48° 249° (WSW) 12:38:44 437.505
PCSat 18 Aug 12:39:15 12:43:52 28° 229° (SW) 12:48:32 145.827
50 SAT 18 Aug 12:45:17 12:48:39 85° 103° (ESE) 12:52:05 437.505
NANOSAT C BR1 18 Aug 12:53:29 12:57:44 53° 253° (WSW) 13:01:54 145.865
POLYITAN 1 18 Aug 12:54:36 12:58:48 46° 252° (WSW) 13:02:55 437.675
UKube-1 18 Aug 13:06:50 13:11:07 67° 106° (ESE) 13:15:29 .
VELOX 1 18 Aug 13:08:00 13:11:32 23° 275° (W) 13:15:08 145.980
QB50P2 18 Aug 13:09:48 13:13:36 30° 249° (WSW) 13:17:20 145.880/145.840
EO-79 18 Aug 13:11:49 13:15:40 31° 249° (WSW) 13:19:27 145.935-145.965
DX 1 18 Aug 13:20:44 13:25:01 56° 281° (W) 13:29:21 434.975-435.025
NO-84 18 Aug 13:23:55 13:27:32 26° 53° (NE) 13:31:14 435.350 FM
SO-50 18 Aug 13:38:55 13:42:04 17° 219° (SW) 13:45:15 436.795
Oscar 19 18 Aug 13:43:51 13:48:56 51° 80° (E) 13:53:56 437.125/150
DUCHIFAT 1 18 Aug 13:47:14 13:50:05 17° 245° (WSW) 13:52:54 145.980
BEESAT 18 Aug 13:47:46 13:51:28 22° 115° (ESE) 13:55:12 436.000
YUBILEINY 18 Aug 13:55:27 14:02:41 27° 114° (ESE) 14:09:50 435.215
BUGSAT 1 18 Aug 14:01:14 14:05:16 38° 251° (WSW) 14:09:13 437.445
MOZHAYETS 4 18 Aug 14:03:57 14:07:44 25° 113° (ESE) 14:11:33
ITUPSAT 1 18 Aug 14:18:33 14:23:06 43° 110° (ESE) 14:27:43 437.325
Gurwin Techsat 1B 18 Aug 14:27:26 14:32:52 85° 76° (ENE) 14:38:13 435.225
UKube-1 18 Aug 14:46:32 14:47:35 11° 270° (W) 14:48:38 .
ITAMSAT 1 18 Aug 14:56:28 14:59:58 18° 88° (E) 15:03:27 435.822/435.867
NO-84 18 Aug 15:00:36 15:04:53 50° 216° (SW) 15:09:13 435.350 FM
AO-7 18 Aug 15:16:28 15:24:05 36° 82° (E) 15:31:37 .
Oscar 19 18 Aug 15:24:05 15:27:51 21° 243° (WSW) 15:31:35 437.125/150
BEESAT 18 Aug 15:24:24 15:28:57 41° 279° (W) 15:33:34 436.000
MOZHAYETS 4 18 Aug 15:40:25 15:44:41 35° 277° (W) 15:49:01
CUBESAT XI-V 18 Aug 15:50:09 15:54:46 61° 106° (ESE) 15:59:26 437.345
YUBILEINY 18 Aug 15:51:24 16:00:15 70° 273° (W) 16:09:01 435.215
ITUPSAT 1 18 Aug 15:57:27 16:01:05 21° 273° (W) 16:04:46 437.325
Gurwin Techsat 1B 18 Aug 16:09:25 16:12:02 14° 239° (WSW) 16:14:39 435.225
KKS-1 18 Aug 16:17:06 16:21:28 56° 107° (ESE) 16:25:53 437.445
ITAMSAT 1 18 Aug 16:34:34 16:39:48 58° 252° (WSW) 16:44:57 435.822/435.867
NO-84 18 Aug 16:40:19 16:43:17 17° 197° (SSW) 16:46:14 435.350 FM
STARS 18 Aug 17:05:37 17:10:01 77° 106° (ESE) 17:14:30 437.465
AO-7 18 Aug 17:08:58 17:17:01 52° 244° (WSW) 17:25:02 .
AO-85 18 Aug 17:25:59 17:30:45 35° 67° (ENE) 17:35:36 145.980
CUBESAT XI-V 18 Aug 17:30:10 17:32:32 14° 270° (W) 17:34:53 437.345
DOVE 4 18 Aug 17:33:43 17:38:27 49° 81° (E) 17:43:23 437.250
KAITUO 1B 18 Aug 17:40:06 17:41:10 11° 90° (E) 17:42:15 145.475/437.950
LilacSat-2 18 Aug 17:47:41 17:50:37 20° 86° (E) 17:53:31 437.200
YUBILEINY 18 Aug 17:52:06 17:55:15 12° 253° (WSW) 17:58:25 435.215
KKS-1 18 Aug 17:56:05 17:58:22 14° 271° (W) 18:00:40 437.445
XW-2D 18 Aug 17:56:07 17:59:19 25° 85° (E) 18:02:28 145.860 - 145.880
XW-2B 18 Aug 18:06:50 18:10:19 32° 83° (E) 18:13:44 145.730 - 145.750
BEESAT 3 18 Aug 18:07:12 18:10:59 70° 236° (SW) 18:14:46 437.485
BEESAT 2 18 Aug 18:13:02 18:16:41 40° 63° (ENE) 18:20:21 435.950
STRAND 1 18 Aug 18:13:50 18:18:19 31° 113° (ESE) 18:22:50 437.568
NUDT-PHONESAT 18 Aug 18:16:13 18:19:35 30° 84° (E) 18:22:53 437.300
CUTE-I 18 Aug 18:18:28 18:23:34 39° 82° (E) 18:28:35 437.470
NO-84 18 Aug 18:20:09 18:22:19 13° 175° (S) 18:24:26 435.350 FM
XW-2C 18 Aug 18:25:30 18:29:18 57° 80° (E) 18:33:01 145.795 - 145.815
HO-68 18 Aug 18:32:19 18:37:31 21° 89° (E) 18:42:39 435.675
XW-2F 18 Aug 18:40:32 18:44:23 84° 77° (ENE) 18:48:09 145.980 - 146.000
SO-50 18 Aug 18:48:50 18:51:07 13° 145° (SE) 18:53:24 436.795
CUBEBUG 2 18 Aug 18:54:49 18:57:05 13° 91° (E) 18:59:18 437.445
AO-7 18 Aug 19:04:53 19:07:51 12° 222° (SW) 19:10:49 .
AO-85 18 Aug 19:06:16 19:11:12 37° 229° (SW) 19:16:12 145.980
